#timestamp,LO_Frequency,Hit,StdDev 
1609513215.7,286047000.4,N
1609513235.6,286046999.9,N
1609513255.4,286047000.4,N
1609513275.2,286046999.9,N
1609513295.1,286047000.3,N
1609513296.0,286047000.3,N
1609513315.8,286047000.3,N
1609513335.6,286047000.1,N
1609513355.5,286047000.5,N
1609513375.3,286047001.0,N
1609513395.2,286046998.5,N
1609513415.9,286046998.3,N
1609513435.7,286046998.2,N
1609513455.6,286046996.8,Y
1609513475.4,286046995.8,P
1609513495.3,286046998.0,N
1609513515.1,286046997.5,N
1609513516.0,286046997.5,N
1609513535.8,286046997.7,N
1609513555.7,286046999.1,N
1609513575.5,286046998.3,N
1609513595.3,286047000.4,N
1609513615.2,286047000.6,N
1609513635.0,286046998.1,N
1609513635.9,286046998.1,N
1609513655.8,286046998.2,N
1609513675.6,286047000.9,N
1609513695.4,286047001.1,N
1609513715.3,286046998.8,N
1609513735.1,286046999.1,N
1609513755.8,286046998.7,N
1609513775.7,286046998.3,N
1609513795.5,286046998.7,N
1609513815.4,286046999.2,N
1609513835.2,286046998.6,N
1609513855.0,286046998.6,N
1609513855.9,286046998.6,N
1609513875.8,286046998.4,N
1609513895.6,286047000.4,N
1609513915.5,286046999.2,N
1609513935.3,286046996.9,N
1609513955.1,286046996.8,N
1609513975.9,286046996.5,N
1609513995.7,286046996.5,N
1609514015.5,286046999.1,N
1609514035.4,286046996.5,N
1609514055.2,286046998.9,N
1609514075.1,286046999.9,N
1609514076.0,286046999.9,N
1609514095.8,286046999.8,N
1609514115.6,286047001.1,N
1609514135.5,286046998.7,N
1609514155.3,286046998.4,N
1609514175.2,286046998.3,N
1609514195.9,286046998.9,N
1609514215.7,286046999.2,N
1609514235.6,286046999.3,N
1609514255.4,286046999.1,N
1609514275.2,286046998.6,N
1609514295.1,286047001.2,N
1609514296.0,286047001.2,N
1609514315.8,286046998.4,N
1609514335.7,286047000.2,N
1609514355.5,286047000.2,N
1609514375.3,286047001.0,N
1609514395.2,286046999.2,N
1609514415.0,286046998.9,N
1609514415.9,286046998.9,N
1609514435.8,286046999.6,N
1609514455.6,286046998.3,N
1609514475.5,286046999.0,N
1609514495.3,286046998.1,N
1609514515.1,286046998.6,N
1609514535.9,286046998.7,N
1609514555.7,286047000.5,N
1609514575.5,286047000.6,N
1609514595.4,286047000.2,N
1609514615.2,286047001.0,N
1609514635.1,286047001.0,N
1609514636.0,286047001.0,N
1609514655.8,286047000.7,N
1609514675.6,286047000.1,N
1609514695.5,286047000.8,N
1609514715.3,286047001.2,N
1609514735.2,286046998.9,N
1609514755.9,286046999.6,N
1609514775.7,286047001.2,N
1609514795.6,286046999.1,N
1609514815.4,286046998.2,N
1609514835.2,286047002.5,N
1609514855.1,286047001.9,N
1609514856.0,286047001.9,N
1609514875.8,286047002.5,N
1609514895.7,286047001.9,N
1609514915.5,286047001.4,N
1609514935.3,286047002.5,N
1609514955.2,286046999.8,N
1609514975.0,286047000.3,N
1609514975.9,286047000.3,N
1609514995.7,286046998.3,N
1609515015.6,286046998.2,N
1609515035.4,286047000.1,N
1609515055.3,286047000.0,N
1609515075.1,286047000.4,N
1609515076.0,286047000.4,N
1609515095.8,286047000.1,N
1609515115.7,286047000.4,N
1609515135.5,286047000.0,N
1609515155.4,286047002.4,N
1609515175.2,286047000.7,N
1609515195.0,286046998.8,N
1609515195.9,286046998.8,N
1609515215.8,286046998.8,N
1609515235.6,286046998.5,N
1609515255.5,286046998.9,N
1609515275.3,286046998.7,N
1609515295.1,286047000.2,N
1609515315.9,286047002.2,N
1609515335.7,286047000.3,N
1609515355.5,286047000.5,N
1609515375.4,286047000.7,N
1609515395.2,286046998.6,N
1609515415.1,286046998.8,N
1609515416.0,286046998.8,N
1609515435.8,286046999.3,N
1609515455.6,286046996.9,N
1609515475.5,286046998.5,N
1609515495.3,286047000.8,N
1609515515.1,286047000.8,N
1609515535.9,286047000.9,N
1609515555.7,286046998.9,N
1609515575.6,286047001.1,N
1609515595.4,286046998.3,N
1609515615.2,286046998.5,N
1609515635.1,286047000.9,N
1609515636.0,286047000.9,N
1609515655.8,286046999.1,N
1609515675.6,286046998.6,N
1609515695.5,286046998.2,N
1609515745.4,286046996.7,E
1609515755.3,286046998.2,N
1609515775.1,286047001.8,P
1609515795.9,286047002.1,N
1609515815.7,286047004.2,N
1609515835.5,286047005.9,N
1609515855.4,286047004.4,N
1609515875.2,286047001.8,N
1609515895.0,286047001.3,N
1609515895.9,286047001.3,N
1609515915.8,286047004.1,N
1609515935.6,286047005.9,N
1609515955.5,286047005.5,N
1609515975.3,286047005.5,N
1609515995.1,286047005.6,N
1609516015.9,286047003.7,N
1609516035.7,286047003.4,N
1609516055.5,286047005.9,N
1609516075.4,286047003.4,N
1609516095.2,286047005.9,N
1609516115.1,286047005.5,N
1609516116.0,286047005.5,N
1609516135.8,286047005.4,N
1609516155.6,286047005.6,N
1609516175.5,286047008.1,Y
1609516195.3,286047011.4,P
1609516215.2,286047008.1,N
1609516235.9,286047004.5,N
1609516255.7,286047006.0,N
1609516275.6,286047001.6,N
1609516295.4,286047003.1,N
1609516315.2,286047003.5,N
1609516335.1,286047003.1,N
1609516336.0,286047003.1,N
1609516355.8,286047001.4,N
1609516375.7,286047002.1,N
1609516395.5,286047001.7,N
1609516415.3,286047002.0,N
1609516435.2,286046999.7,N
1609516455.9,286046999.0,N
1609516475.7,286046996.7,N
1609516495.6,286046996.5,N
1609516515.4,286046996.6,N
1609516535.3,286046996.8,N
1609516555.1,286046997.1,N
1609516556.0,286046997.1,N
1609516575.8,286046996.6,N
1609516595.7,286046999.5,N
1609516615.5,286047001.2,N
1609516635.3,286046999.4,N
1609516655.2,286046998.5,N
1609516675.0,286046998.6,N
1609516675.9,286046998.6,N
1609516695.8,286046999.6,N
1609516715.6,286046997.2,N
1609516735.4,286046997.4,N
1609516755.3,286046998.0,N
1609516775.1,286046996.8,N
1609516795.9,286046997.0,N
